Regional Weather Roundup
Issued by NWS

Home | Current Version | Previous Version | Text Only | Print | Product List | Glossary On
Versions: 1 2 3 4 5 6 7 8 9 10 11 12 13 14 15 16 17 18 19 20 21 22 23 24 25 26 27 28 29 30 31 32 33 34 35 36 37 38 39 40 41 42 43 44 45 46 47 48 49 50
000
ASUS43 KMPX 171901
RWRMN
WEATHER ROUNDUP FOR MINNESOTA
NATIONAL WEATHER SERVICE TWIN CITIES/CHANHASSEN MN
100 PM CST FRI NOV 17 2017


NOTE: "FAIR" INDICATES FEW OR NO CLOUDS BELOW 12,000 FEET WITH NO
SIGNIFICANT WEATHER AND/OR OBSTRUCTIONS TO VISIBILITY. N/A MEANS
CURRENT SKY AND/OR WEATHER CONDITIONS ARE NOT AVAILABLE.

MNZ060>063-068>070-172000-
   Twin Cities Metro

CITY           SKY/WX    TMP DP  RH WIND       PRES   REMARKS
TWIN CITIES    DRZL/FOG  37  37 100 SE3       29.64F VSB 1
ST PAUL        FOG       37  37 100 CALM      29.66F VSB 3/4
CRYSTAL        MIX PCPN  37  34  89 CALM      29.64S VSB 1
BLAINE         DRIZZLE   37  37 100 SE5       29.64F
LAKEVILLE      DRIZZLE   36  36 100 CALM      29.63S
EDEN PRAIRIE   FOG       38  37  97 CALM      29.63S VSB 1
SOUTH ST PAUL  FOG       37  37 100 S3        29.65S VSB 1
LAKE ELMO      DRIZZLE   36  36 100 CALM      29.65F
$$
MNZ001>005-007-008-013>017-022>024-027-028-172000-
   Northwest Minnesota

CITY           SKY/WX    TMP DP  RH WIND       PRES   REMARKS
BEMIDJI        CLOUDY    36  30  80 W12       29.63R
HALLOCK        CLOUDY    21  16  79 NW10      29.69F WCI  10
ROSEAU         MOSUNNY   25  18  74 W10G17    29.64R WCI  15
WARROAD        MOSUNNY   30  23  74 W9        29.63R WCI  22
CROOKSTON      PTSUNNY   27  19  74 NW15      29.69F WCI  15
FOSSTON        CLOUDY    32  28  86 NW9       29.65R WCI  24
DETROIT LAKES  CLOUDY    36  32  87 NW10      29.66R
MOORHEAD       CLOUDY    36  27  69 N16       29.67F
PARK RAPIDS    CLOUDY    37  32  82 W8        29.61S
MAHNOMEN       MOCLDY    32  29  87 NW9       29.64S WCI  24
$$
MNZ006-009>011-018-025>026-172000-
   North Central Minnesota

CITY           SKY/WX    TMP DP  RH WIND       PRES   REMARKS
BAUDETTE       CLOUDY    34  29  82 W10       29.59S WCI  26
FLAG ISLAND    CLOUDY    28  19  69 W9        29.60R WCI  20
INTL FALLS     CLOUDY    37  29  72 W12       29.59S
WASKISH        PTSUNNY   36  30  80 W10       29.60F
BIG FORK       CLOUDY    36  30  80 SW6       29.60S
LONGVILLE      CLOUDY    34  30  86 CALM      29.62S
GRAND RAPIDS   CLOUDY    33  31  92 NW3       29.64S
CRANE LAKE     CLOUDY    32  30  93 SW3       29.62R
ORR            CLOUDY    32  28  86 SW5       29.58R WCI  27
COOK           CLOUDY    32  30  93 SW5       29.61S WCI  27
WALKER         FAIR      37  31  78 W10       29.62R
$$
MNZ012-019>021-037-172000-
   Northeast Minnesota

CITY           SKY/WX    TMP DP  RH WIND       PRES   REMARKS
DULUTH         CLOUDY    32  32 100 S10       29.61F FOG     WCI  24
ELY            CLOUDY    32  30  93 W5        29.59F WCI  27
HIBBING        CLOUDY    32  31  96 W5        29.62R FOG     WCI  27
EVELETH        CLOUDY    32  28  86 W8        29.63R WCI  25
DULUTH HARBOR  CLOUDY    34  34 100 CALM      29.66F FOG
TWO HARBORS    CLOUDY    36  30  80 S5        29.61F HAZE
SILVER BAY     LGT SNOW  34  34 100 SW7       29.62F WCI  28
GRAND MARAIS     N/A     36  35  96 SW15      29.66F
G MARAIS ARPRT LGT SNOW  28  27  93 S8        29.61F VSB 1   WCI  20
$$
MNZ029>031-032-039>041-046>048-054>057-064-172000-
   West Central Minnesota

CITY           SKY/WX    TMP DP  RH WIND       PRES   REMARKS
FERGUS FALLS   CLOUDY    36  30  80 NW12      29.67S
WHEATON        MOSUNNY   37  30  75 NW10      29.66F
MORRIS         CLOUDY    37  36  93 N8        29.63F
ALEXANDRIA     CLOUDY    38  35  89 NW8       29.64R
ELBOW LAKE     FAIR      35  32  90 NW5       29.65S FOG     WCI  31
WADENA         CLOUDY    36  32  87 MISG      29.62F
GLENWOOD       RAIN      37  36  93 NW12      29.63R
APPLETON         N/A     39  34  81 NW10      29.63R
BENSON         LGT RAIN  41  36  81 N9        29.64S
ORTONVILLE     MOSUNNY   39  34  81 MISG      29.62F
MADISON        CLOUDY    43  34  70 NW14      29.62S
WILLMAR        FAIR      43  36  75 N3        29.62S
$$
MNZ033>034-036-042>043-049>051-058-059-172000-
   Central Minnesota

CITY           SKY/WX    TMP DP  RH WIND       PRES   REMARKS
ST CLOUD       CLOUDY    40  34  79 VRB5      29.62F
SAUK CENTRE    LGT RAIN  37  33  88 SE3       29.62S
PAYNESVILLE    CLOUDY    40  35  80 CALM      29.62F
AITKIN         LGT RAIN  34  30  86 S6        29.59F WCI  29
PINE RIVER     CLOUDY    32  30  93 CALM      29.68R
BRAINERD       LGT RAIN  37  33  85 W13       29.64R FOG
STAPLES        CLOUDY    34  34 100 NW5       29.65R WCI  30
LONG PRAIRIE   MIX PCPN  34  32  93 SE6       29.61F WCI  29
LITTLE FALLS   MIX PCPN  37  30  75 SE6       29.62F
LITCHFIELD     CLOUDY    43  37  81 CALM      29.62F
BUFFALO        CLOUDY    38  34  84 CALM      29.64S FOG
MAPLE LAKE     CLOUDY    40  36  86 CALM      29.64F
HUTCHINSON     CLOUDY    43  37  79 CALM      29.62F
$$
MNZ037-044-045-052-053-172000-
   East Central Minnesota

CITY           SKY/WX    TMP DP  RH WIND       PRES   REMARKS
PRINCETON      CLOUDY    37  36  93 CALM      29.65F FOG
MORA           CLOUDY    34  32  93 CALM      29.67S FOG
CAMBRIDGE      FOG       37  37 100 CALM      29.66S VSB 1
RUSH CITY      CLOUDY    35  33  94 CALM      29.66S FOG
MOOSE LAKE     CLOUDY    34  32  93 S5        29.61F FOG     WCI  30
HINCKLEY       CLOUDY    34  34 100 CALM      29.65F FOG
CLOQUET        CLOUDY    34  30  86 S7        29.62F FOG     WCI  28
MCGREGOR       CLOUDY    34  32  93 S9        29.60F WCI  26
$$
MNZ071>073-080-081-089-090-097-098-172000-
   Southwest Minnesota

CITY           SKY/WX    TMP DP  RH WIND       PRES   REMARKS
MONTEVIDEO     MOSUNNY   43  36  75 NE8       29.61F
GRANITE FALLS  PTSUNNY   45  35  69 N10       29.61F
CANBY          CLOUDY    44  33  63 NW8       29.61F
MARSHALL       LGT RAIN  44  34  67 N9        29.59F
REDWOOD FALLS  PTSUNNY   47  35  63 NW8       29.60F
OLIVIA         MOSUNNY   46  36  66 N5        29.59F
PIPESTONE      LGT RAIN  45  36  70 NE9       29.58S
WINDOM           N/A     48  34  57 CALM      29.57F
WORTHINGTON    CLOUDY    50  42  74 NW7       29.57S
JACKSON        CLOUDY    45  37  76 CALM      29.57S
SLAYTON        PTSUNNY   47  39  75 N16       29.59R
$$
MNZ065>067-074>077-082>085-091>093-172000-
   South Central Minnesota

CITY           SKY/WX    TMP DP  RH WIND       PRES   REMARKS
MANKATO        CLOUDY    39  36  89 S6        29.61F FOG
NEW ULM        CLOUDY    43  36  75 CALM      29.59F
ST JAMES       MOSUNNY   45  37  76 SE6       29.59F
FAIRMONT       CLOUDY    42  38  85 S10       29.59F
GLENCOE        CLOUDY    42  37  83 E3        29.61F
FARIBAULT      DRIZZLE   37  36  93 S8        29.62F
OWATONNA       DRIZZLE   37  36  93 S8        29.61F
WASECA         DRIZZLE   36  34  93 S7        29.62F
ALBERT LEA     DRZL/FOG  37  36  93 S6        29.60F VSB 3/4
$$
MNZ078>079-086>088-094>096-172000-
   Southeast Minnesota

CITY           SKY/WX    TMP DP  RH WIND       PRES   REMARKS
ROCHESTER      CLOUDY    35  35 100 S18       29.61F FOG     WCI  24
RED WING       DRIZZLE   37  36  93 E3        29.64F
STANTON        DRIZZLE   38  36  92 S3        29.62F
DODGE CENTER   DRIZZLE   36  36 100 S14       29.60F
WINONA         CLOUDY    36  34  93 S5        29.66F FOG
AUSTIN         DRZL/FOG  36  36 100 S5        29.61F VSB 1
PRESTON        CLOUDY    35  33  94 S12       29.63F FOG     WCI  27
$$
ABBREVIATIONS USED IN REMARKS
   TC - TEMPERATURES IN CELSIUS
  WCI - WIND CHILL INDEX
   HX - HEAT INDEX
  VSB - VISIBILITY
$$




USA.gov is the U.S. government's official web portal to all federal, state and local government web resources and services.